Columbus, MS

6:48 AM CST on December 04, 2016 (GMT -0600)
Columbus Air Force Base

Weather History for KCBM - February, 2013

Change the Weather History Date:

Tuesday, February 26, 2013

  Actual Average Record
Temperature  
Mean Temperature 49 °F -  
Max Temperature 55 °F 59 °F 74 °F (2011)
Min Temperature 43 °F 40 °F 21 °F (2015)
Degree Days  
Heating Degree Days 16    
Moisture  
Dew Point 42 °F    
Average Humidity 78    
Maximum Humidity 100    
Minimum Humidity 59    
Precipitation  
Precipitation 0.13 in - - ()
Sea Level Pressure  
Sea Level Pressure 29.58 in    
Wind  
Wind Speed 13 mph (SW)    
Max Wind Speed 22 mph    
Max Gust Speed 28 mph    
Visibility 10 miles    
Events Rain    
Averages and records for this station are not official NWS values.
T = Trace of Precipitation, MM = Missing Value Source: NWS Daily Summary

Daily Weather History Graph

Daily Weather History Graph

Search for Another Location

Airport or City:

Trip Planner

Search our weather history database for the weather conditions in past years. The results will help you decide how hot, cold, wet, or windy it might be!

Date:

Astronomy

Feb. 26, 2013 Rise Set
Actual Time 6:25 AM CST 5:48 PM CST
Civil Twilight 6:00 AM CST 6:13 PM CST
Nautical Twilight 5:31 AM CST 6:42 PM CST
Astronomical Twilight 5:02 AM CST 7:10 PM CST
Moon 6:58 PM CST (2/26) 6:32 AM CST (2/26)
Length of Visible Light 12h 12m
Length of Day
11h 22m
Full, 99% of the Moon is Illuminated
Feb 26
Full
Mar 4
Last Quarter
Mar 11
New
Mar 19
First Quarter
Mar 27
Full

Hourly Weather History & Observations

Time (CST) Temp. Windchill Dew Point Humidity Pressure Visibility Wind Dir Wind Speed Gust Speed Precip Events Conditions
12:03 AM 55.4 °F - 55.4 °F 100% 29.47 in 10.0 mi South 16.1 mph - N/A   Overcast
12:08 AM 55.4 °F - 55.4 °F 100% 29.47 in 10.0 mi South 13.8 mph - N/A   Overcast
12:53 AM 55.4 °F - 55.4 °F 100% 29.46 in 10.0 mi SSE 13.8 mph 20.7 mph N/A   Overcast
12:55 AM 55.4 °F - 55.4 °F 100% 29.46 in 10.0 mi SSE 15.0 mph 20.7 mph N/A Rain Light Rain
12:58 AM 55.9 °F - 54.5 °F 95% 29.46 in 10.0 mi SSE 12.7 mph 20.7 mph 0.00 in Rain Light Rain
1:10 AM 55.4 °F - 55.4 °F 100% 29.46 in 10.0 mi South 15.0 mph - N/A   Overcast
1:58 AM 55.8 °F - 55.4 °F 99% 29.44 in 10.0 mi SSE 15.0 mph - 0.01 in   Overcast
2:03 AM 55.4 °F - 55.4 °F 100% 29.42 in 10.0 mi SSE 13.8 mph - N/A   Overcast
2:48 AM 55.4 °F - 55.4 °F 100% 29.44 in 10.0 mi WSW 17.3 mph 24.2 mph N/A Rain Light Rain
2:49 AM 55.4 °F - 55.4 °F 100% 29.44 in 10.0 mi West 18.4 mph 24.2 mph N/A Rain Light Rain
2:54 AM 55.4 °F - 53.6 °F 94% 29.44 in 1.5 mi WSW 5.8 mph 24.2 mph N/A Rain Light Rain
2:58 AM 54.0 °F - 51.8 °F 92% 29.45 in 1.5 mi WSW 8.1 mph 24.2 mph 0.11 in Rain Light Rain
3:03 AM 53.6 °F - 50.0 °F 88% 29.44 in 7.0 mi WSW 5.8 mph - N/A Rain Light Rain
3:04 AM 53.6 °F - 48.2 °F 82% 29.44 in 9.0 mi WSW 4.6 mph - N/A   Mostly Cloudy
3:19 AM 51.8 °F - 48.2 °F 88% 29.43 in 10.0 mi West 1.2 mph - N/A   Scattered Clouds
3:58 AM 52.5 °F - 50.2 °F 92% 29.46 in 10.0 mi West 4.6 mph - 0.00 in   Mostly Cloudy
4:13 AM 53.6 °F - 51.8 °F 94% 29.46 in 10.0 mi WSW 8.1 mph - N/A   Overcast
4:28 AM 53.6 °F - 51.8 °F 94% 29.46 in 10.0 mi WSW 10.4 mph - N/A   Overcast
4:38 AM 51.8 °F - 46.4 °F 82% 29.47 in 10.0 mi West 21.9 mph 27.6 mph N/A   Mostly Cloudy
4:43 AM 51.8 °F - 44.6 °F 76% 29.47 in 10.0 mi West 17.3 mph 27.6 mph N/A   Mostly Cloudy
4:58 AM 50.0 °F - 43.0 °F 77% 29.49 in 10.0 mi West 12.7 mph - 0.01 in   Mostly Cloudy
5:58 AM 46.2 °F 41.2 °F 36.1 °F 68% 29.53 in 10.0 mi West 10.4 mph - N/A   Partly Cloudy
6:58 AM 43.9 °F 39.3 °F 36.0 °F 74% 29.55 in 10.0 mi SW 8.1 mph - N/A   Clear
7:58 AM 46.8 °F - 36.3 °F 67% 29.58 in 10.0 mi SW 12.7 mph 19.6 mph N/A   Clear
8:48 AM 48.2 °F - 35.6 °F 62% 29.59 in 10.0 mi SW 15.0 mph 26.5 mph N/A   Mostly Cloudy
8:58 AM 47.1 °F - 35.6 °F 64% 29.60 in 10.0 mi SW 17.3 mph 24.2 mph N/A   Mostly Cloudy
9:58 AM 46.8 °F - 35.1 °F 64% 29.62 in 10.0 mi SSW 13.8 mph 18.4 mph N/A   Overcast
10:58 AM 46.0 °F 39.9 °F 35.1 °F 66% 29.66 in 10.0 mi SW 13.8 mph 24.2 mph N/A   Overcast
11:58 AM 48.0 °F - 35.1 °F 61% 29.64 in 10.0 mi SSW 16.1 mph 24.2 mph N/A   Overcast
12:17 PM 44.6 °F 38.8 °F 37.4 °F 76% 29.64 in 10.0 mi SW 11.5 mph 20.7 mph N/A Rain Light Rain
12:31 PM 44.6 °F 38.1 °F 37.4 °F 76% 29.64 in 10.0 mi WSW 13.8 mph 20.7 mph N/A   Overcast
12:50 PM 44.6 °F 38.4 °F 37.4 °F 76% 29.64 in 10.0 mi SW 12.7 mph 20.7 mph N/A Rain Light Rain
12:55 PM 44.6 °F 38.4 °F 37.4 °F 76% 29.64 in 10.0 mi WSW 12.7 mph 20.7 mph N/A Rain Light Rain
12:58 PM 44.6 °F 38.1 °F 36.5 °F 73% 29.66 in 10.0 mi WSW 13.8 mph 20.7 mph 0.00 in Rain Light Rain
1:03 PM 44.6 °F 39.7 °F 35.6 °F 71% 29.64 in 10.0 mi WSW 9.2 mph - N/A Rain Light Rain
1:08 PM 44.6 °F 38.4 °F 35.6 °F 71% 29.65 in 10.0 mi SW 12.7 mph - N/A Rain Light Rain
1:09 PM 44.6 °F 38.4 °F 35.6 °F 71% 29.65 in 10.0 mi SW 12.7 mph - N/A   Overcast
1:58 PM 46.4 °F 40.4 °F 34.3 °F 63% 29.67 in 10.0 mi WSW 13.8 mph - 0.00 in   Overcast
2:58 PM 46.0 °F 38.3 °F 33.8 °F 62% 29.69 in 10.0 mi WSW 20.7 mph 27.6 mph N/A   Overcast
3:58 PM 45.5 °F 40.8 °F 31.8 °F 59% 29.71 in 10.0 mi WSW 9.2 mph - N/A   Overcast
4:58 PM 45.1 °F 39.9 °F 32.5 °F 61% 29.72 in 10.0 mi SW 10.4 mph - N/A   Overcast
5:58 PM 45.1 °F 39.5 °F 33.3 °F 63% 29.76 in 10.0 mi SW 11.5 mph - N/A   Overcast
6:58 PM 45.3 °F 40.6 °F 33.1 °F 62% 29.79 in 10.0 mi WSW 9.2 mph - N/A   Overcast
7:58 PM 45.0 °F 38.9 °F 33.6 °F 64% 29.82 in 10.0 mi WSW 12.7 mph 21.9 mph N/A   Overcast
8:58 PM 44.8 °F 40.4 °F 33.4 °F 64% 29.83 in 10.0 mi SW 8.1 mph - N/A   Overcast
9:58 PM 44.8 °F 39.4 °F 33.3 °F 64% 29.85 in 10.0 mi WSW 10.4 mph - N/A   Overcast
10:58 PM 44.6 °F 38.4 °F 33.6 °F 65% 29.87 in 10.0 mi West 12.7 mph 16.1 mph N/A   Overcast
11:58 PM 44.4 °F 40.0 °F 33.1 °F 64% 29.89 in 10.0 mi West 8.1 mph - N/A   Overcast